Regional Weather Roundup
Issued by NWS Wakefield, VA

Home | Current Version | Previous Version | Graphics & Text | Print | Product List | Glossary On
Versions: 1 2 3 4 5 6 7 8 9 10 11 12 13 14 15 16 17 18 19 20 21 22 23 24 25 26 27 28 29 30 31 32 33 34 35 36 37 38 39 40 41 42 43 44 45 46 47 48 49 50
000
ASUS41 KAKQ 010610
RWRAKQ

REGIONAL WEATHER ROUNDUP
NATIONAL WEATHER SERVICE WAKEFIELD VA
200 AM EDT WED OCT 01 2014

Note: "fair" indicates few or no clouds below 12,000 feet with no
significant weather and/or obstructions to visibility. * = Denotes
station may not report precipitation (e.g., rain,snow,etc.),
thunder or fog.

VAZ042-051-052>054-056-010700-
NORTHERN VIRGINIA

CITY           SKY/WX    TMP DP  RH WIND       PRES   REMARKS
WASH NATIONAL  CLOUDY    70  63  78 NE7       29.96R
DULLES         CLOUDY    62  61  96 N5        29.97R
FORT BELVOIR   MOCLDY    65  62  91 MISG      29.96R
QUANTICO       MOCLDY    64  62  93 NW6       29.96R
FREDERICKSBRG* PTCLDY    63  63 100 CALM      29.94S FOG
STAFFORD*      PTCLDY    60  60 100 CALM      29.98S FOG
WARRENTON      FOG       60  60 100 CALM      29.96R VSB 1/4
CULPEPER*      FOG       61  59  94 CALM      29.97R VSB 1/2
MANASSAS*      MOCLDY    63  63 100 CALM      29.96R
LEESBURG*      CLOUDY    63  63 100 N6        29.98R FOG
WINCHESTER     DRIZZLE   63  61  94 CALM      29.97S
FRONT ROYAL*   CLOUDY    61  61 100 CALM      29.96S
LURAY*         CLOUDY    63  63 100 CALM      29.98R FOG
$$

VAZ048-049-060>072-079>083-010700-
CENTRAL AND SOUTH CENTRAL VIRGINIA...AND NORTH CENTRAL NORTH CAROLINA

CITY           SKY/WX    TMP DP  RH WIND       PRES   REMARKS
RICHMOND       PTCLDY    63  60  90 CALM      29.94S
CHESTERFIELD*  CLOUDY   N/A N/A N/A CALM      29.95F
PETERSBURG*    CLOUDY    59  58  97 CALM      29.95S FOG
HANOVER        PTCLDY    60  59  96 CALM      29.96S FOG
TAPPAHANNOCK*  MOCLDY    58  56  94 CALM      29.94F
CHARLOTTSVILLE MOCLDY    62  61  96 CALM      29.96R FOG
ORANGE*        MOCLDY    61  59  94 CALM      29.97S FOG
LOUISA*        MOCLDY    59  57  94 SE3       29.94S FOG
FARMVILLE*     MOCLDY    61  61 100 CALM      29.94F FOG
CREWE*         CLEAR     59  58  95 NW3       29.96R
FORT PICKETT*  MOCLDY    60  59  97 N5        29.95S
LUNENBURG*     CLOUDY    55  55  99 N3        29.95S VSB 1/4
SOUTH HILL*    FOG       61  61 100 CALM      29.99S VSB 1
LAWRENCEVILLE* CLEAR     59  59 100 CALM      29.94R
ROANOKE RAPIDS FOG       54  54 100 CALM      29.94R VSB 1/4
RALEIGH        PTCLDY    59  57  93 CALM      29.94S
$$

VAZ088>098-010700-
SOUTHEAST VIRGINIA

CITY           SKY/WX    TMP DP  RH WIND       PRES   REMARKS
NORFOLK        MOCLDY    69  64  84 NE9       29.92R
VIRGINIA BEACH PTCLDY    65  61  87 N5        29.92R
NORFOLK NAVAL  PTCLDY    69  64  84 NE8       29.94R
WEST POINT*    PTCLDY    60  58  92 CALM      29.95S
NEWPORT NEWS   CLEAR     65  61  87 N3        29.93R FOG
LANGLEY AFB    CLEAR     62  62 100 N6        29.93S
FORT EUSTIS    CLEAR     64 N/A N/A NE3       29.92R
WILLIAMSBURG*  CLEAR     63  63 100 CALM      29.95R
HR EXEC AP*    CLOUDY    55  54  94 CALM      29.95R VSB 1/4
FRANKLIN*      CLOUDY    57 N/A N/A CALM      29.94R VSB 1/2
WAKEFIELD      MOCLDY    58  56  93 CALM      29.94S FOG
$$

VAZ020-022-025-037-045-010700-
WEST CENTRAL AND SOUTHWEST VIRGINIA

CITY           SKY/WX    TMP DP  RH WIND       PRES   REMARKS
STAUNTON*      CLOUDY    62  56  82 NE3       29.98S
HOT SPRINGS VA CLOUDY    58  37  46 W6        30.05S
LYNCHBURG      CLOUDY    63  63 100 E5        29.97S FOG
DANVILLE       FOG       63  61  93 CALM      29.94S VSB 1/4
SOUTH BOSTON*  NOT AVBL
MARTINSVILLE   PTCLDY    56  56 100 CALM      29.97S FOG
ROANOKE        MOCLDY    61  57  87 CALM      29.98R
BLACKSBURG     CLEAR     54  54 100 CALM      30.01S FOG
DUBLIN*        CLEAR     54  54  99 CALM      30.00S
MARION*        CLEAR     52  51  95 CALM      30.04S FOG
HILLSVILLE*    CLEAR     55  53  93 SW6       30.02S
RICHLANDS*     CLEAR     61  54  79 S5        30.01S
WISE*          CLEAR     59  50  72 SW3       30.03S
ABINGDON*      CLEAR     56  55  95 CALM      30.00S
$$

MDZ021>025-VAZ099-100-010700-
SOUTHERN MARYLAND AND THE DELMARVA PENINSULA

CITY           SKY/WX    TMP DP  RH WIND       PRES   REMARKS
PATUXENT RIVER PTCLDY    67  62  84 E5        29.94S
BAY BRIDGE APT   N/A     64  61  88 E6        29.96R
LEONARDTOWN    MOCLDY    63  61  94 CALM      29.95F
DOVER          CLOUDY    61  61 100 N7        29.94S
GEORGETOWN     CLEAR     62  59  90 NE6       29.95S
EASTON         CLOUDY    65  65 100 CALM      29.99S
CAMBRIDGE      MOCLDY    64  61  88 CALM      29.94S
SALISBURY      PTCLDY    64  60  87 N3        29.94R
OCEAN CITY     CLEAR    N/A N/A N/A N5        29.93S
WALLOPS ISLAND CLEAR     63  61  93 N5        29.94S
ACCOMACK*      FOG       59  57  94 N3        29.93S VSB 1/2
$$

NCZ012>017-030>032-010700-
EASTERN NORTH CAROLINA

CITY           SKY/WX    TMP DP  RH WIND       PRES   REMARKS
ELIZABETH CITY CLEAR     64  63  96 N7        29.92R
AHOSKIE*       PTCLDY    57  56  97 CALM      29.93S FOG
EDENTON*       CLEAR     61  60  97 N3        29.92R
CURRITUCK*     CLEAR     64  62  94 CALM      29.92S
KILL DEVIL HLS MOCLDY    69  65  87 N5        29.89R
MANTEO         PTCLDY    68  64  89 N8        29.90S
CAPE HATTERAS  CLEAR     67  66  97 N7        29.88S
TARBORO*       FOG       57  56  97 CALM      29.93S VSB 1/4
GOLDSBORO      CLEAR     62  62  98 CALM      29.90S
WASHINGTON     CLEAR     60  59  97 N3        29.92R
GREENVILLE     FOG       61  61 100 CALM      29.94R VSB 1/4
NEW BERN       CLEAR     64  61  88 CALM      29.92R FOG
WILMINGTON     CLEAR     65  63  93 NE3       29.90S
$$

VAZ048-010700-
ELSEWHERE

CITY           SKY/WX    TMP DP  RH WIND       PRES   REMARKS
HARRISBURG PA  MOCLDY    59  58  96 NW5       29.99R
BALTIMORE      MOCLDY    64  61  90 NE5       29.97R
ANNAPOLIS      MOCLDY    67  61  81 NE5       29.96R
ANDREWS AFB    CLOUDY    64  64 100 NE6       29.95R
WILMINGTON DE  CLOUDY    64  60  87 NE6       29.99R
PHILADELPHIA   CLOUDY    64  58  80 NE6       29.99R
WILDWOOD NJ*   PTCLDY    61  55  82 N6        29.96R
ATLANTIC CITY  CLOUDY    63  62  97 N8        29.95R
HENDERSON NC   FOG       57  56  96 CALM      29.94S VSB 1/4
GREENSBORO     CLEAR     62  61  96 CALM      29.93F FOG
ROCKY MOUNT    FOG       57  56  96 CALM      29.93R VSB 1/2
FAYETTEVILLE   CLEAR     63  62  97 N3        29.91S FOG
CHARLOTTE      CLEAR     64  61  90 CALM      29.94S
$$

VAZ100-010700-
MARINE

STATION/POSITION TIME  TEMP    WIND        PRES    WAVE   SWELL
                       AIR SEA DIR/SP/G            HT/PER HT/PER
                 (UTC) (F)     (DEG/KT/KT) (MB)    (FT/S) (FT/S)
44066 TX TWR #4  0600   67 70   50/ 17/ 19 1012.5F   5/ 6
CAPE MAY NJ      0600   63 74   20/  2/  5 1013.6R
LEWES DE         0600   67 70   10/ 11/ 12 1013.7S
15NM E FENWICK I 0600   69 70              1013.1R   3/ 5
OCEAN-CITY-INLET 0600   68 72   30/  5/  8 1013.2S
WACHAPREAGUE VA  0600   63 74  330/  3/  4 1013.4S
THOMAS POINT MD  0600   66 72   70/  8/  9 1015.5R
GOOSES REEF MD   0600   68     120/ 10/ 12 1014.2F
COVE POINT MD    0600   67     110/  7/  8 1013.7R
SOLOMONS ISLAND  0600      72                N/A
BISHOPS HEAD MD  0600   67 74   40/  6/  8 1013.4R
PINEY POINT MD   0600          100/  6/  8   N/A
POTOMAC MD       0600   69      80/  6/  8 1013.0S
CAMBRIDGE MD     0600   66 71   60/  6/  8 1013.7S
LEWISETTA VA     0600   67 72  210/  3/  4 1013.4R
RAPPAHANNOCK LGT 0600           30/  7/  8 1013.8F
STINGRAY PT      0600   70      60/  6/  8   N/A
YORK RVR RNG VA  0600   69      40/  7/  8 1012.9R
YORKTOWN VA      0600   67 73   20/  6/  7 1013.1S
JAMESTOWN VA     0600   66     350/  2/  4   N/A
DOMINION TERM VA 0600   68      50/  2/  3 1013.2S
KIPTOPEKE VA     0600      76   40/  5/  8   N/A
CHES BAY BRIDGE  0600   70 72   20/  9/ 11 1012.7R
CHESAPEAKE LGHT  0500   70      20/ 12/ 13 1013.4R
WILLOUBY STN VA  0600   70      20/  8/ 10 1011.9S
S CRANEY ISL VA  0600           10/  7/  8 1012.8R
CAPE HENRY BUOY  0600      73                N/A     2/14   2/14
1ST LANDING BUOY 0600   70      20/ 10/ 12 1012.8S
CAPE CHARLES BUO 0600      73                N/A     2/14   2/14
OFFSHORE WE BUOY 0600      73                N/A     3/14   2/14
64NM E OF VA BCH 0600   71 72   20/ 14/ 16 1011.5R   3/14   2/14
DUCK PIER NC     0600   71 73   20/ 12/ 14 1011.8R
44100 DUCK FRF   0600      72                N/A     3/ 7   2/13
44056 DUCK FRF   0600                        N/A     2/ 7
OREGON INLET NC  0600   69 73  360/  8/ 11 1012.2R
HATTERAS NC      0600   71 75   10/ 14/ 16 1012.0S
DIAMOND SHLS NC  0600   72     360/ 16/ 19 1011.1S   4/ 6   2/13
CAPE LOOKOUT NC  0500   70     360/ 10/ 13 1011.7S
$$



USA.gov is the U.S. government's official web portal to all federal, state and local government web resources and services.